Weather History for Salina, KS

Change the Weather History Date:

Saturday, December 21, 2013

  Actual Average Record
Temperature  
Mean Temperature 24 °F 31 °F  
Max Temperature 26 °F 41 °F 66 °F (1941)
Min Temperature 21 °F 21 °F -11 °F (1989)
Degree Days  
Heating Degree Days 41 34  
Month to date heating degree days 705 670  
Since 1 July heating degree days 1693 1622  
Cooling Degree Days 0 0  
Month to date cooling degree days 0 0  
Year to date cooling degree days 1750 1647  
Moisture  
Dew Point 17 °F    
Average Humidity 75    
Maximum Humidity 88    
Minimum Humidity 62    
Precipitation  
Precipitation 0.00 in 0.03 in 0.33 in (1920)
Month to date precipitation T 0.69  
Year to date precipitation 29.41 31.25  
Sea Level Pressure  
Sea Level Pressure 29.79 in    
Wind  
Wind Speed 9 mph (North)    
Max Wind Speed 21 mph    
Max Gust Speed 26 mph    
Visibility 5 miles    
Events Fog , Snow    
T = Trace of Precipitation, MM = Missing Value Source: NWS Daily Summary

Daily Weather History Graph

Daily Weather History Graph

Search for Another Location

Airport:

Trip Planner

Search our weather history database for the weather conditions in past years. The results will help you decide how hot, cold, wet, or windy it might be!

Date:

Astronomy

Dec. 21, 2013 Rise Set
Actual Time 7:45 AM CST 5:12 PM CST
Civil Twilight 7:15 AM CST 5:42 PM CST
Nautical Twilight 6:42 AM CST 6:15 PM CST
Astronomical Twilight 6:09 AM CST 6:48 PM CST
Moon 9:27 PM CST (12/21) 10:14 AM CST (12/21)
Length of Visible Light 10h 26m
Length of Day
9h 26m
Waning Gibbous, 84% of the Moon is Illuminated
Dec 21
Waning Gibbous
Dec 25
Last Quarter
Jan 1
New
Jan 7
First Quarter
Jan 15
Full

Hourly Weather History & Observations

Time (CST) Temp. Windchill Dew Point Humidity Pressure Visibility Wind Dir Wind Speed Gust Speed Precip Events Conditions
12:53 AM 21.9 °F 17.2 °F 12.0 °F 66% 29.92 in 10.0 mi West 3.5 mph - N/A   Partly Cloudy
1:53 AM 21.9 °F 11.7 °F 12.0 °F 66% 29.84 in 10.0 mi NNW 9.2 mph - N/A   Clear
2:53 AM 21.9 °F 13.4 °F 12.0 °F 66% 29.85 in 10.0 mi NNW 6.9 mph - N/A   Clear
3:53 AM 21.9 °F 17.2 °F 12.0 °F 66% 29.87 in 10.0 mi North 3.5 mph - N/A   Clear
4:53 AM 21.0 °F 13.4 °F 12.0 °F 68% 29.85 in 10.0 mi NNW 5.8 mph - N/A   Clear
5:53 AM 21.9 °F - 12.9 °F 68% 29.88 in 10.0 mi Calm Calm - N/A   Partly Cloudy
6:53 AM 21.9 °F - 12.9 °F 68% 29.87 in 10.0 mi Calm Calm - N/A   Overcast
7:53 AM 21.9 °F 14.5 °F 12.9 °F 68% 29.85 in 10.0 mi NNE 5.8 mph - N/A   Overcast
8:53 AM 21.9 °F 14.5 °F 12.9 °F 68% 29.83 in 10.0 mi NNE 5.8 mph - N/A   Partly Cloudy
9:23 AM 23.0 °F 17.0 °F 12.9 °F 65% 29.81 in 10.0 mi NE 4.6 mph - N/A   Mostly Cloudy
9:53 AM 23.0 °F 13.9 °F 14.0 °F 68% 29.85 in 10.0 mi NNE 8.1 mph - N/A   Mostly Cloudy
10:53 AM 24.1 °F 15.2 °F 14.0 °F 65% 29.85 in 10.0 mi NNE 8.1 mph - N/A   Overcast
11:53 AM 25.0 °F 16.3 °F 15.1 °F 66% 29.82 in 10.0 mi NNE 8.1 mph - N/A   Overcast
12:53 PM 26.1 °F 16.2 °F 16.0 °F 66% 29.78 in 10.0 mi NE 10.4 mph - N/A   Overcast
1:53 PM 26.1 °F 16.8 °F 16.0 °F 66% 29.76 in 10.0 mi NE 9.2 mph - N/A   Overcast
2:53 PM 26.1 °F 15.6 °F 18.0 °F 71% 29.74 in 7.0 mi NNE 11.5 mph - 0.00 in   Overcast
3:34 PM 25.0 °F 13.6 °F 18.0 °F 75% 29.68 in 2.0 mi NE 12.7 mph - 0.00 in Snow Light Snow
3:41 PM 25.0 °F 13.6 °F 19.0 °F 78% 29.69 in 1.5 mi NE 12.7 mph - 0.00 in Snow Light Snow
3:53 PM 25.0 °F 13.6 °F 19.0 °F 78% 29.73 in 1.0 mi NNE 12.7 mph - 0.00 in Snow Light Snow
4:20 PM 24.1 °F 14.4 °F 19.9 °F 84% 29.70 in 0.8 mi NNE 9.2 mph - 0.00 in Snow Light Snow
4:32 PM 24.1 °F 12.5 °F 19.9 °F 84% 29.69 in 0.5 mi NNE 12.7 mph - 0.00 in Snow Snow
4:46 PM 24.1 °F 13.7 °F 21.0 °F 88% 29.68 in 0.2 mi NNE 10.4 mph - 0.00 in Snow Heavy Snow
4:53 PM 24.1 °F 13.1 °F 21.0 °F 88% 29.73 in 0.2 mi North 11.5 mph - 0.00 in Fog , Snow Snow
5:05 PM 24.1 °F 12.0 °F 21.0 °F 88% 29.68 in 0.8 mi North 13.8 mph - 0.00 in Snow Light Snow
5:53 PM 24.1 °F 12.0 °F 21.0 °F 88% 29.74 in 0.8 mi North 13.8 mph - 0.00 in Snow Light Snow
6:26 PM 24.1 °F 11.5 °F 21.0 °F 88% 29.69 in 0.2 mi North 15.0 mph - 0.00 in Fog , Snow Heavy Snow
6:39 PM 24.1 °F 12.0 °F 21.0 °F 88% 29.70 in 0.2 mi North 13.8 mph - 0.00 in Fog , Snow Heavy Snow
6:53 PM 24.1 °F 13.1 °F 21.0 °F 88% 29.78 in 0.2 mi North 11.5 mph - 0.00 in Fog , Snow Heavy Snow
7:53 PM 24.1 °F 13.1 °F 21.0 °F 88% 29.80 in 0.2 mi NNE 11.5 mph - 0.00 in Fog , Snow Heavy Snow
8:42 PM 24.1 °F 12.5 °F 21.0 °F 88% 29.76 in 0.5 mi NNW 12.7 mph - 0.00 in Fog , Snow Snow
8:50 PM 24.8 °F 12.9 °F 21.2 °F 86% 29.76 in 0.5 mi North 13.8 mph - 0.00 in Fog , Snow Snow
8:53 PM 24.1 °F 11.5 °F 21.0 °F 88% 29.81 in 0.5 mi North 15.0 mph - 0.00 in Fog , Snow Snow
9:53 PM 24.1 °F 12.0 °F 21.0 °F 88% 29.82 in 0.5 mi North 13.8 mph - 0.00 in Fog , Snow Snow
10:53 PM 24.1 °F 10.1 °F 19.9 °F 84% 29.84 in 0.8 mi North 18.4 mph - 0.00 in Snow Light Snow
11:53 PM 23.0 °F 10.1 °F 19.9 °F 88% 29.89 in 0.8 mi NNW 15.0 mph - 0.00 in Snow Light Snow